Flag for Russia Weather past 2 weeks in Astrakhan, Russia

Now
90 °F

Sunny.


Feels Like: 86 °F
Forecast: 72 / 95 °F
Wind: 6 mph from Southeast

Location: Astrakhan

Current Time: Jul 25, 2014 at 6:37:43 PM

Latest Report: Jul 25, 2014 at 6:00 PM


Visibility: 10 mi

Pressure: 29.77 "Hg

Humidity: 18%

Dew point: 41 °F

Location of AstrakhanLocation

Historic Weather in Astrakhan — Graph

°F

Astrakhan temperature yesterday

Maximum temperature yesterday: 93 °F (at 1:00 PM)
Minimum temperature yesterday: 64 °F (at 4:30 AM)
Average temperature yesterday: 80 °F

Past Weeks' High & Low Weather Summary

 TemperatureHumidityPressure
High99 °F (Jul 17, 3:30 PM)78% (Jul 12, 3:30 AM)30.07 "Hg (Jul 12, 3:30 AM)
Low59 °F (Jul 14, 3:30 AM)12% (Jul 14, 9:30 AM)29.65 "Hg (Jul 19, 4:00 AM)
Average79 °F37%29.87 "Hg
* Reported Jul 10 5:00 PM — Jul 25 5:30 PM, Astrakhan, Weather by CustomWeather, © 2014

Note: Actual official high and low records may vary slightly from our data, if they occured in-between our weather recording intervals... More about our weather records

Advertising

Astrakhan weather history for previous 24 hours

 ConditionsComfort  
Time TempWeatherWind HumidityBarometerVisibility
5:30 PM
Jul 25
90 °FSunny.6 mph18%29.77 "Hg10 mi
5:00 PM90 °FPassing clouds.8 mph18%29.77 "HgN/A
4:30 PM90 °FPassing clouds.8 mph21%29.77 "HgN/A
4:00 PM91 °FPassing clouds.8 mph20%29.77 "HgN/A
3:30 PM93 °FPassing clouds.10 mph19%29.80 "HgN/A
3:00 PM93 °FPassing clouds.10 mph19%29.80 "HgN/A
2:30 PM93 °FSunny.10 mph19%29.80 "Hg10 mi
2:00 PM91 °FPassing clouds.10 mph18%29.80 "HgN/A
1:30 PM93 °FPassing clouds.10 mph19%29.80 "HgN/A
1:00 PM91 °FPassing clouds.13 mph20%29.80 "HgN/A
12:30 PM91 °FSunny.13 mph23%29.80 "Hg10 mi
12:00 PM91 °FPassing clouds.10 mph21%29.80 "HgN/A
11:30 AM91 °FPassing clouds.10 mph24%29.80 "HgN/A
11:00 AM91 °FSunny.10 mph23%29.80 "Hg10 mi
10:30 AM90 °FPassing clouds.13 mph21%29.80 "HgN/A
10:00 AM88 °FSunny.10 mph25%29.80 "Hg10 mi
9:30 AM84 °FSunny.13 mph31%29.80 "Hg10 mi
9:00 AM82 °FSunny.8 mph40%29.80 "Hg10 mi
8:30 AM79 °FSunny.10 mph45%29.80 "Hg10 mi
8:00 AM77 °FSunny.8 mph51%29.80 "Hg10 mi
7:30 AM75 °FSunny.8 mph50%29.80 "Hg10 mi
6:30 AM70 °FSunny.8 mph64%29.80 "Hg10 mi
6:00 AM70 °FClear.6 mph64%29.80 "Hg10 mi
5:30 AM70 °FClear.8 mph64%29.80 "Hg10 mi
5:00 AM68 °FClear.6 mph69%29.80 "Hg10 mi
4:30 AM68 °FClear.6 mph69%29.80 "Hg10 mi
4:00 AM70 °FClear.6 mph64%29.80 "Hg10 mi
3:30 AM70 °FClear.6 mph64%29.80 "Hg10 mi
3:00 AM68 °FClear.3 mph69%29.80 "Hg10 mi
2:30 AM72 °FClear.6 mph61%29.80 "Hg10 mi
2:00 AM72 °FClear.3 mph57%29.80 "Hg10 mi
1:30 AM73 °FClear.6 mph57%29.80 "Hg10 mi
1:00 AM75 °FClear.6 mph54%29.80 "Hg10 mi
12:30 AM75 °FClear.6 mph54%29.80 "Hg10 mi
12:00 AM75 °FPassing clouds.3 mph54%29.83 "HgN/A
11:30 PM
Jul 24
73 °FClear.3 mph53%29.83 "Hg10 mi
11:00 PM73 °FClear.3 mph53%29.83 "Hg10 mi
10:30 PM73 °FClear.3 mph53%29.83 "Hg10 mi
10:00 PM77 °FClear.3 mph44%29.83 "Hg10 mi
9:30 PM79 °FClear.3 mph39%29.83 "Hg10 mi
9:00 PM81 °FSunny.3 mph37%29.83 "Hg10 mi
8:30 PM81 °FSunny.6 mph37%29.83 "Hg10 mi
8:00 PM84 °FSunny.8 mph31%29.83 "Hg10 mi
7:30 PM86 °FSunny.8 mph27%29.83 "Hg10 mi
7:00 PM88 °FSunny.10 mph24%29.83 "Hg10 mi
6:30 PM90 °FSunny.10 mph24%29.83 "Hg10 mi
6:00 PM90 °FPassing clouds.10 mph24%29.83 "HgN/A
Weather by CustomWeather, © 2014

See weather overviewHow to use our weather pages